Theta_e
322 322 322 321 322 322 323 322 322 322 322 322 321 322 322 323 322 322 323 323 323 323 323 323 323 322 322 322 322 322 321 320 319 319 318 317 316 316 315 314 314 314
321 321 320 321 321 320 321 323 323 322 322 322 322 322 323 322 323 322 322 322 322 322 323 323 323 322 322 322 322 322 322 321 320 320 319 318 318 317 316 316 315 315
319 320 321 320 321 321 321 321 322 322 323 323 323 322 323 322 322 322 322 323 322 323 323 323 323 322 322 322 322 321 321 321 320 321 319 319 319 318 318 318 317 316
315 319 321 321 321 321 321 320 320 321 322 322 322 323 322 323 322 322 322 318 322 322 323 323 322 322 322 321 321 321 321 321 321 321 320 319 319 319 319 319 318 318
311 314 317 320 321 321 320 320 320 320 320 321 322 322 321 320 320 321 321 321 322 322 322 322 322 322 322 321 321 320 320 321 321 321 320 319 320 319 319 318 317 317
308 311 314 316 318 319 319 320 320 320 320 320 320 320 321 321 321 320 320 320 320 321 321 321 321 322 322 321 321 320 320 320 320 320 320 319 319 319 319 319 318 317
306 307 309 313 315 317 318 319 320 319 320 320 319 319 320 319 319 320 320 319 319 319 320 320 320 320 321 321 320 320 320 320 319 319 318 319 318 318 318 318 317 317
306 306 308 310 312 314 316 318 319 319 319 318 317 319 318 319 318 319 319 319 318 319 319 319 320 320 320 320 319 319 319 320 319 318 317 317 317 316 316 318 317 316
305 306 307 308 310 312 313 315 316 316 316 316 317 318 316 317 318 318 318 318 318 318 318 318 319 319 319 319 318 318 317 317 318 317 316 315 315 316 316 316 315 315
303 304 304 305 305 308 309 311 313 313 313 314 316 316 315 316 316 318 317 317 317 316 316 317 317 317 316 316 318 317 316 317 316 317 317 316 316 316 315 315 315 315
299 299 300 302 303 304 305 306 307 308 309 311 313 313 315 314 313 313 315 315 317 317 317 316 316 316 317 316 316 316 316 317 317 317 317 317 317 317 311 316 316 315
297 296 298 299 300 301 303 304 305 306 308 308 310 314 313 313 314 312 312 314 314 315 316 316 315 314 315 316 316 315 315 316 316 317 317 317 317 317 317 316 316 316
297 297 297 297 298 300 301 303 304 304 305 307 307 308 310 311 310 310 310 311 313 313 314 315 315 313 315 315 316 316 316 316 316 317 317 317 317 317 317 317 317 316
296 296 296 297 297 298 300 302 303 303 304 305 303 306 308 309 310 311 310 308 311 312 314 313 313 313 314 315 315 316 316 316 316 316 316 316 316 316 316 316 316 316
295 295 296 295 296 297 298 300 301 301 302 303 303 304 306 306 308 309 308 309 309 310 311 311 312 313 314 314 313 314 316 316 317 316 316 315 315 315 315 316 316 316
294 294 294 294 295 296 296 297 297 298 298 300 302 302 302 301 301 302 305 308 309 309 309 310 311 314 307 305 306 313 316 317 317 316 315 315 314 314 314 315 315 315
292 293 293 293 294 294 294 294 296 296 296 297 298 299 299 298 297 300 303 305 307 309 310 309 311 313 304 305 304 303 311 316 316 316 315 315 314 314 314 313 314 315
292 292 291 292 292 293 293 293 292 292 293 294 295 295 296 293 296 299 302 304 306 307 308 310 311 303 304 304 303 302 301 309 315 316 315 315 315 314 314 313 312 312
292 292 292 292 292 292 291 291 290 291 291 292 293 292 290 293 296 297 299 300 301 303 305 308 310 304 303 302 302 302 302 303 312 314 315 315 315 314 314 314 313 311
292 292 292 292 291 290 289 289 289 290 290 289 289 289 290 291 291 293 295 296 297 298 300 302 304 301 301 301 300 300 301 302 309 312 312 313 314 314 314 313 313 310
291 291 291 291 291 290 289 289 288 288 288 289 288 288 289 290 290 290 292 293 295 295 296 297 300 298 298 298 299 299 299 298 305 308 310 311 312 313 313 313 312 311
289 289 290 290 290 289 289 289 289 288 288 288 287 287 287 287 287 289 291 292 293 293 294 295 296 296 296 296 297 298 298 300 302 304 306 307 309 310 310 310 309 309
289 289 288 288 288 288 288 288 288 289 288 286 287 287 286 287 287 288 288 289 290 291 292 293 293 293 294 295 296 297 297 300 301 301 303 304 306 306 307 306 304 303
288 288 288 288 288 287 287 287 287 287 287 287 287 288 287 287 287 287 287 287 288 289 290 291 291 291 293 294 294 295 295 298 299 299 299 300 301 301 301 301 301 294
287 287 286 287 287 287 287 287 287 287 287 287 287 287 287 287 287 287 287 287 286 288 288 289 290 290 292 293 293 294 293 296 296 297 296 297 298 299 299 300 300 295
286 285 285 285 285 286 286 286 287 286 287 287 286 287 287 287 287 287 287 287 287 288 289 290 290 290 291 292 293 293 294 294 295 295 294 295 296 296 297 297 297 296
Wind_Speed
9 8 10 10 10 10 10 10 10 10 10 10 11 11 11 12 10 11 13 13 14 14 14 14 13 13 13 13 13 12 11 13 13 12 13 13 13 15 15 16 15 14
9 9 9 9 9 9 10 10 10 10 11 11 10 10 10 10 10 11 12 13 14 15 15 14 14 14 14 13 13 13 12 12 14 10 13 15 14 14 16 17 17 15
7 8 9 10 11 12 11 10 9 10 10 11 10 10 10 9 10 10 11 13 13 14 15 15 14 14 14 14 13 13 13 13 14 13 14 14 14 14 15 15 14 16
7 8 9 10 11 11 10 9 10 10 10 10 11 10 10 9 9 11 11 13 13 13 14 14 14 14 14 14 14 13 14 14 14 13 14 13 13 14 15 13 14 14
7 8 8 9 9 9 9 10 11 11 11 12 11 10 10 9 9 9 11 12 12 13 12 13 13 13 13 13 13 13 13 13 13 13 14 14 13 13 13 12 14 15
7 7 7 8 8 8 9 11 12 11 12 11 12 9 9 10 9 9 10 11 10 11 11 11 12 12 12 13 12 13 13 12 12 13 15 15 14 12 11 12 14 15
8 7 8 7 8 8 10 11 11 11 11 11 8 9 9 9 9 10 9 9 10 10 11 11 12 12 11 11 12 13 13 13 12 13 15 14 13 14 12 13 14 15
8 7 7 7 7 8 9 10 10 10 10 8 9 10 8 10 10 9 9 9 9 10 10 11 11 12 11 11 12 12 13 11 12 13 14 14 13 14 13 13 13 15
6 7 7 7 8 8 9 9 9 9 7 9 9 9 8 9 10 10 10 10 10 10 10 11 12 11 10 11 12 12 13 13 13 13 14 15 15 16 15 13 14 14
7 7 7 8 7 9 9 9 8 8 7 8 10 9 10 10 9 10 10 10 10 11 11 11 11 11 10 10 13 13 13 14 14 14 14 15 16 16 14 14 15 14
9 7 7 8 9 8 9 9 8 8 7 8 8 9 10 9 9 9 10 10 11 12 12 11 12 11 11 11 12 12 13 14 14 14 15 15 16 15 14 14 14 15
9 7 8 8 9 8 9 9 9 7 8 7 8 10 9 9 10 9 9 11 11 12 11 12 11 10 11 12 13 12 12 13 13 13 14 15 15 15 14 14 14 15
9 9 9 8 8 9 8 8 8 8 8 9 7 8 9 10 8 9 9 9 11 10 11 11 10 10 11 12 13 13 13 14 14 14 14 14 13 14 13 13 14 14
7 7 8 9 8 8 9 9 8 8 8 8 6 8 9 9 9 9 9 8 10 11 12 10 10 10 11 12 12 12 11 12 12 12 13 12 13 13 12 12 13 13
7 6 6 7 7 7 8 9 8 8 8 8 8 8 8 7 7 7 8 9 10 10 10 9 10 12 11 11 10 11 10 12 12 12 12 13 13 12 12 12 12 13
7 7 7 7 7 8 8 8 8 8 8 8 9 8 7 6 6 6 7 9 10 9 9 9 10 10 13 16 14 11 10 11 11 12 12 12 12 12 12 13 13 12
6 6 6 7 7 7 7 7 8 7 7 8 8 7 7 7 6 8 8 7 8 9 9 9 10 10 14 14 15 16 12 11 11 11 11 11 12 12 13 13 13 14
7 6 6 7 7 7 7 7 7 7 8 8 7 8 8 5 7 8 8 8 8 9 9 10 10 12 13 14 14 14 13 11 10 11 11 12 12 12 12 11 11 10
7 7 7 7 7 7 7 7 7 8 8 8 8 7 5 7 8 8 9 8 8 10 11 11 10 12 12 14 14 14 14 12 11 12 12 12 12 13 13 12 11 12
8 8 9 9 8 7 6 7 7 8 7 7 7 6 6 8 7 9 9 9 9 9 10 10 11 13 14 14 12 13 15 14 13 14 14 14 14 14 13 14 13 12
9 9 9 10 10 8 8 7 6 7 7 7 7 7 7 8 8 7 8 7 8 8 10 12 11 13 14 16 15 15 13 10 9 10 11 13 14 13 13 13 12 11
8 9 9 9 10 10 9 9 8 7 7 7 6 5 5 6 7 6 9 9 8 8 9 12 11 12 15 16 16 15 15 11 10 10 11 12 12 12 11 11 11 11
8 8 9 9 9 9 10 10 10 11 8 5 6 6 5 6 7 7 7 7 8 7 9 12 11 9 12 15 14 14 12 10 10 10 12 13 13 11 11 11 10 8
7 7 9 9 9 9 10 10 9 8 7 6 7 9 8 6 6 7 6 6 8 9 8 11 12 7 11 13 13 13 12 11 10 10 12 13 13 11 9 9 11 14
7 6 7 7 8 9 8 10 10 10 9 7 7 7 8 7 6 7 7 5 6 8 9 11 11 9 10 13 15 14 11 9 9 9 12 13 10 11 11 10 12 10
7 7 6 6 7 7 7 8 8 9 9 8 7 6 7 6 6 7 9 8 4 6 7 7 10 9 7 12 13 14 15 11 8 9 11 11 9 10 11 9 9 8
Wind_Direction
234 229 232 232 235 234 236 233 230 231 229 226 226 227 226 227 219 213 215 219 221 224 224 223 220 221 222 222 221 222 222 223 225 222 223 220 223 223 224 224 224 223
237 233 233 235 240 238 239 237 237 233 236 232 230 231 231 228 222 213 213 217 219 222 223 223 221 220 220 220 219 221 222 223 225 220 225 220 224 222 226 225 225 225
245 239 235 234 237 240 239 239 239 240 239 238 237 232 233 228 227 217 217 216 218 221 222 222 222 220 220 220 219 220 222 223 225 223 225 224 222 223 226 225 227 224
250 240 238 239 239 242 240 239 239 241 243 244 239 236 233 232 224 222 222 219 221 222 222 221 222 221 219 220 219 222 221 224 225 224 227 227 226 225 227 225 228 228
256 252 245 243 242 240 238 236 238 238 239 241 245 241 239 237 230 228 225 224 223 226 224 223 222 223 220 221 219 224 223 227 226 226 229 230 228 227 230 227 230 231
271 261 256 250 247 240 235 235 237 238 239 243 242 242 242 239 237 234 231 230 227 228 228 226 225 224 222 222 220 224 224 226 227 225 231 233 232 228 229 227 230 232
273 274 268 261 258 247 243 241 239 236 237 238 243 241 240 242 239 239 236 232 231 228 227 226 224 225 222 222 222 225 226 228 228 226 231 234 234 234 230 231 231 234
277 276 272 272 264 259 249 249 246 240 236 235 234 240 232 238 239 241 238 234 231 229 228 228 226 225 222 220 222 225 228 227 229 227 232 235 232 236 230 231 232 235
280 281 279 274 269 264 258 253 251 248 239 234 235 239 233 229 234 234 235 233 232 230 228 228 226 227 222 219 222 224 226 227 227 226 229 232 232 234 232 230 234 235
282 279 283 278 273 266 263 260 255 253 246 241 240 239 236 232 226 230 230 229 231 231 227 226 225 224 221 218 221 221 225 227 226 227 228 230 233 234 233 231 233 236
285 287 284 280 274 272 269 268 264 260 253 248 248 244 240 237 235 225 228 226 228 230 229 226 226 223 221 222 223 224 225 227 227 228 230 232 233 234 232 231 233 234
283 289 282 276 276 278 274 274 272 264 260 254 245 250 248 240 236 230 224 227 228 230 229 230 226 222 222 224 224 224 226 228 229 229 231 232 233 233 232 230 233 235
292 292 290 289 288 285 285 283 277 272 267 262 252 247 251 250 242 239 235 230 233 230 231 230 228 222 225 228 229 228 227 229 231 233 234 234 236 235 235 234 235 236
287 294 300 298 299 297 295 294 296 292 284 278 276 262 253 253 253 245 245 234 237 233 234 228 229 229 229 230 231 231 232 235 234 236 239 240 240 239 236 236 235 236
300 301 297 300 300 299 298 297 296 294 293 288 281 273 267 261 261 259 256 249 247 244 243 233 229 232 230 228 230 233 233 238 238 237 237 239 240 239 237 236 237 234
299 300 302 304 304 301 299 297 296 294 292 290 287 283 287 289 291 281 267 262 261 256 248 243 240 240 237 230 223 224 228 233 237 239 237 238 239 241 239 234 233 233
302 297 303 304 299 301 299 299 296 296 294 291 288 290 292 295 301 296 283 276 270 268 263 252 247 246 242 234 232 229 229 235 237 242 241 242 241 241 243 239 237 233
315 310 310 304 307 302 302 299 299 298 294 289 290 291 287 301 294 279 281 283 283 279 271 264 259 254 250 249 242 236 231 239 247 248 245 245 245 243 244 241 240 240
325 326 319 313 310 307 306 307 304 299 294 294 289 286 301 292 282 289 284 283 277 278 279 279 277 272 265 259 254 249 242 237 252 253 256 255 250 249 249 247 243 238
328 329 326 320 318 316 315 314 311 302 297 291 289 298 291 285 284 279 280 281 281 281 279 278 275 284 293 289 281 267 259 247 246 246 246 250 248 244 242 241 239 238
331 329 325 322 322 322 321 314 305 301 301 295 295 290 288 281 284 285 277 275 277 276 279 279 277 284 285 286 292 291 286 273 262 260 254 252 253 255 254 251 248 247
328 325 322 322 322 323 323 320 317 307 303 301 292 288 278 280 281 269 276 277 272 273 273 274 273 276 278 280 280 280 283 281 271 267 264 261 258 252 253 256 253 243
328 323 320 319 320 321 319 319 319 318 313 301 300 287 281 279 274 272 271 275 276 268 269 273 276 273 270 271 272 271 272 268 267 264 263 264 262 261 255 256 254 247
322 321 318 317 319 317 314 310 306 298 296 306 302 303 299 281 275 281 269 261 268 269 261 276 282 286 279 279 276 269 259 261 262 264 264 258 260 258 258 259 254 245
313 311 308 308 311 310 310 308 307 305 302 302 293 288 284 292 288 284 281 260 252 263 266 266 279 282 272 271 269 266 260 260 262 259 262 262 265 266 256 250 252 243
311 307 301 300 300 297 296 293 296 304 304 304 296 285 289 292 287 284 288 288 273 270 271 266 277 281 271 267 267 263 256 254 257 260 263 271 270 268 274 265 258 255